Orbital Elements at Epoch 2459200.5 (2020-Dec-17.0) TDB
Reference: JPL 24 (heliocentric ecliptic J2000)
Element | Value | Uncertainty (1-sigma) | Units |
e | .1586105703993706 | 3.3341e-08 | |
a | 2.7141237728967 | 9.98e-09 | au |
q | 2.283635053143063 | 9.3758e-08 | au |
i | 8.913408901282496 | 3.93e-06 | deg |
node | 72.74712837057336 | 2.1486e-05 | deg |
peri | 36.95785237045332 | 2.5035e-05 | deg |
M | 320.362320552996 | 1.2171e-05 | deg |
tp | 2459380.324400368333 (2021-Jun-14.82440037) | 5.54e-05 | TDB |
period | 1633.213271709153 4.47 | 9.0082e-06 2.466e-08 | d yr |
n | .220424366024935 | 1.2158e-09 | deg/d |
Q | 3.144612492650337 | 1.1563e-08 | au |
|
| | Orbit Determination Parameters
Additional Information
|